STARLINK-34635, 64761

Orbit data source: Space-Track

STARLINK-34635, 64761 is a payload satellite owned by SpaceX/Seattle (US) in LEO that was launched on Tue, 08 Jul 2025 UTC via an FALCON 9 launch vehicle from the Air Force Eastern Test Range (AFETR). Payload-class satellites include a variety of spacecraft equipped with specific instruments for various scientific and technological missions. These include communications satellites like Starlink; space stations such as the ISS; scientific satellites like the Hubble; Earth observation satellites from companies like Planet Labs, Umbra, and HawkEye 360; GPS; miniature CubeSats for education and research; and military/defense satellites.

Loading next visibility...
Identifier
64761, 2025-147G
Orbit
LEO
Country
Flag of USUS
Related business
Manufacturer
SpaceX/Seattle
Mission
Operational Commercial Communications
Bus & Motor
STARLINK V2MO, Unknown motor
Mass
575 kg wet, ~530 kg dry
Launch date (UTC)
2025-07-08 (1 year ago)
Launch vehicle
FALCON 9
Launch site
Air Force Eastern Test Range (AFETR)
Object type
Payload
Rocket body
Debris
Shape & HBR
Box + 1 Pan, 17.7 m
Radar Cross Section
41.120 m², Large (>1 m²)

Expand to show TLE details & history
Last TLE update: 6 hours ago

TLE from 6 hours ago
0 STARLINK-34635
1 64761U 25147G   26221.81321949  .00008398  00000-0  25939-3 0  9992
2 64761  53.1576 248.8185 0001279  85.8188 274.2961 15.34401779 62231
Epoch: 2026-08-09T19:31Z
TLE epoch observation values (Epoch: 2026-08-09T19:31:02.163Z)
Latitude
-0.00002°
Longitude
-2.24536°
Altitude
463.534 km
Speed
7.636 km/s
True Right ascension
16h 35m 16s
True Declination
0° 00' 00"
Sunlit
Object was in daylight at epoch
Visualization orbit readout
Latitude
Unknown
Longitude
Unknown
Altitude
Unknown
Speed
Unknown
Apparent Right ascension
Unknown
Apparent Declination
Unknown
Sunlit
N/A
Visualization observer readout
Local Sidereal Time
15:59:12
Azimuth
Unknown
Elevation
Unknown
Doppler factor
Unknown
Orbital elements
Apogee altitude
463.83 km
Perigee altitude
462.08 km
Semi-major axis
6,841.092 km
Eccentricity
0.00013
Inclination
53.1576°
RAAN
248.8185°
Arg. of periapsis
85.8188°
True anomaly
274.28148°
Mean anomaly
274.2961°
Eccentric anomaly
274.28879°
Mean motion
3.83579 °/min
Orbital period
93.85 mins
BSTAR
0.00025939
Loading maneuver chart data...
Computing Atmospheric mass density...
Loading historical data...
Loading historical data...
Loading historical data...
Loading historical data...
Loading historical data...
Loading historical data...
Loading historical data...

Documentation

Showing up to 5 results
|